Martinsburg, PA

6:14 PM EST on January 18, 2017 (GMT -0500)
Altoona-Blair County

Weather History for KAOO - August, 2013

Change the Weather History Date:

Sunday, August 25, 2013

  Actual Average Record
Temperature  
Mean Temperature 66 °F 68 °F  
Max Temperature 80 °F 79 °F 92 °F (1948)
Min Temperature 51 °F 57 °F 44 °F (1987)
Degree Days  
Heating Degree Days 0 1  
Month to date heating degree days 16 17  
Since 1 June heating degree days 41 85  
Since 1 July heating degree days 21 27  
Cooling Degree Days 1 4  
Month to date cooling degree days 91 132  
Year to date cooling degree days 553 459  
Since 1 June cooling degree days 479 426  
Growing Degree Days 16 (Base 50)    
Moisture  
Dew Point 57 °F    
Average Humidity 72    
Maximum Humidity 96    
Minimum Humidity 48    
Precipitation  
Precipitation 0.00 in 0.10 in 1.35 in (1982)
Month to date precipitation 2.40 2.39  
Year to date precipitation 18.65 23.31  
Sea Level Pressure  
Sea Level Pressure 30.34 in    
Wind  
Wind Speed 4 mph (SSW)    
Max Wind Speed 12 mph    
Max Gust Speed 17 mph    
Visibility 10 miles    
Events      
T = Trace of Precipitation, MM = Missing Value Source: NWS Daily Summary

Daily Weather History Graph

Daily Weather History Graph

Search for Another Location

Airport or City:

Trip Planner

Search our weather history database for the weather conditions in past years. The results will help you decide how hot, cold, wet, or windy it might be!

Date:

Astronomy

Aug. 25, 2013 Rise Set
Actual Time 6:34 AM EDT 7:55 PM EDT
Civil Twilight 6:05 AM EDT 8:23 PM EDT
Nautical Twilight 5:31 AM EDT 8:57 PM EDT
Astronomical Twilight 4:55 AM EDT 9:33 PM EDT
Moon 10:24 PM EDT (8/25) 11:35 AM EDT (8/25)
Length of Visible Light 14h 18m
Length of Day
13h 21m
Waning Gibbous, 76% of the Moon is Illuminated
Aug 25
Waning Gibbous
Aug 28
Last Quarter
Sep 5
New
Sep 12
First Quarter
Sep 19
Full

Hourly Weather History & Observations

Time (EDT) Temp. Dew Point Humidity Pressure Visibility Wind Dir Wind Speed Gust Speed Precip Events Conditions
12:53 AM 57.0 °F 53.1 °F 87% 30.35 in 10.0 mi Calm Calm - N/A   Clear
1:53 AM 57.0 °F 53.1 °F 87% 30.35 in 10.0 mi Calm Calm - N/A   Clear
2:53 AM 54.0 °F 52.0 °F 93% 30.36 in 10.0 mi Calm Calm - N/A   Clear
3:53 AM 55.0 °F 52.0 °F 89% 30.35 in 10.0 mi Calm Calm - N/A   Clear
4:53 AM 53.1 °F 51.1 °F 93% 30.37 in 10.0 mi Calm Calm - N/A   Clear
5:53 AM 53.1 °F 52.0 °F 96% 30.39 in 10.0 mi Calm Calm - N/A   Clear
6:53 AM 52.0 °F 50.0 °F 93% 30.40 in 6.0 mi Calm Calm - N/A   Clear
7:53 AM 57.0 °F 54.0 °F 89% 30.42 in 9.0 mi Calm Calm - N/A   Clear
8:53 AM 64.9 °F 57.0 °F 75% 30.41 in 10.0 mi Calm Calm - N/A   Clear
9:53 AM 69.1 °F 57.9 °F 68% 30.41 in 10.0 mi SW 3.5 mph - N/A   Clear
10:53 AM 72.0 °F 57.9 °F 61% 30.40 in 10.0 mi SW 6.9 mph - N/A   Partly Cloudy
11:53 AM 73.9 °F 57.9 °F 57% 30.39 in 10.0 mi SSE 8.1 mph - N/A   Clear
12:53 PM 75.9 °F 59.0 °F 56% 30.37 in 10.0 mi South 6.9 mph - N/A   Clear
1:53 PM 77.0 °F 57.9 °F 52% 30.35 in 10.0 mi South 5.8 mph - N/A   Scattered Clouds
2:53 PM 79.0 °F 59.0 °F 50% 30.34 in 10.0 mi SSW 10.4 mph - N/A   Partly Cloudy
3:53 PM 79.0 °F 57.9 °F 48% 30.32 in 10.0 mi Variable 3.5 mph - N/A   Clear
4:53 PM 79.0 °F 60.1 °F 52% 30.30 in 10.0 mi SSW 9.2 mph - N/A   Clear
5:53 PM 78.1 °F 61.0 °F 56% 30.29 in 10.0 mi South 6.9 mph - N/A   Clear
6:53 PM 75.0 °F 61.0 °F 62% 30.28 in 10.0 mi South 5.8 mph - N/A   Scattered Clouds
7:53 PM 71.1 °F 61.0 °F 70% 30.27 in 10.0 mi South 5.8 mph - N/A   Partly Cloudy
8:53 PM 68.0 °F 62.1 °F 81% 30.28 in 10.0 mi SSW 5.8 mph - N/A   Mostly Cloudy
9:53 PM 68.0 °F 61.0 °F 78% 30.28 in 10.0 mi SSW 5.8 mph - N/A   Clear
10:53 PM 64.0 °F 60.1 °F 87% 30.30 in 10.0 mi Calm Calm - N/A   Clear
11:53 PM 64.0 °F 59.0 °F 84% 30.28 in 10.0 mi Calm Calm - N/A   Clear